Home > Weather > Osøyro > Past weeks

Flag for Norway Past Weather in Osøyro, Norway — Yesterday and Last 2 Weeks

Now
54 °F

Scattered showers. Broken clouds.


Feels Like: 53 °F
Forecast: 54 / 61 °F
Wind: 5 mph from South

Location: Bergen / Flesland

Current Time: Jul 30, 2016 at 9:32:42 AM

Latest Report: Jul 30, 2016 at 8:50 AM


Visibility: N/A

Pressure: 29.68 "Hg

Humidity: 94%

Dew Point: 52 °F

Location of OsøyroLocation

Past Weather in Osøyro — Graph

°F

Osøyro Temperature Yesterday

Maximum temperature yesterday: 61 °F (at 11:50 AM)
Minimum temperature yesterday: 55 °F (at 12:50 AM)
Average temperature yesterday: 57 °F

High & Low Weather Summary for the Past Weeks

 TemperatureHumidityPressure
High77 °F (Jul 21, 10:20 AM)100% (Jul 16, 6:50 AM)30.15 "Hg (Jul 16, 6:50 AM)
Low52 °F (Jul 16, 2:50 AM)42% (Jul 21, 10:20 AM)29.68 "Hg (Jul 30, 5:50 AM)
Average59 °F86%29.94 "Hg
* Reported Jul 15 8:20 AM — Jul 30 8:20 AM, Osøyro, Weather by CustomWeather, © 2016

Note: Actual official high and low records may vary slightly from our data, if they occured in-between our weather recording intervals... More about our weather records

Advertising

Osøyro Weather History for the Previous 24 Hours

Scroll right to see more
 ConditionsComfort  
Time TempWeatherWind HumidityBarometerVisibility
8:20 AM
Sat, Jul 30
54 °FScattered showers. Broken clouds.7 mph94%29.68 "HgN/A
7:50 AM55 °FSprinkles. Broken clouds.8 mph88%29.68 "HgN/A
7:20 AM54 °FScattered showers. Broken clouds.8 mph94%29.68 "HgN/A
6:50 AM54 °FScattered showers. Broken clouds.6 mph94%29.68 "HgN/A
6:20 AM54 °FScattered clouds.7 mph94%29.68 "HgN/A
5:50 AM54 °FPassing clouds.7 mph94%29.68 "HgN/A
5:20 AM54 °FPartly cloudy.7 mph94%29.71 "HgN/A
3:50 AM54 °FPartly cloudy.6 mph94%29.71 "HgN/A
2:50 AM52 °FPassing clouds.5 mph94%29.71 "HgN/A
1:50 AM54 °FPassing clouds.3 mph88%29.71 "HgN/A
12:50 AM55 °FPassing clouds.3 mph88%29.71 "HgN/A
12:20 AM55 °FPartly cloudy.5 mph88%29.71 "HgN/A
11:50 PM
Fri, Jul 29
55 °FPartly cloudy.6 mph94%29.71 "HgN/A
11:20 PM55 °FPartly cloudy.6 mph94%29.71 "HgN/A
10:50 PM55 °FBroken clouds.7 mph94%29.71 "HgN/A
10:20 PM55 °FBroken clouds.6 mph94%29.71 "HgN/A
9:50 PM57 °FSprinkles. Broken clouds.6 mph88%29.71 "HgN/A
9:20 PM55 °FBroken clouds.7 mph94%29.71 "HgN/A
8:50 PM57 °FScattered clouds.7 mph88%29.71 "HgN/A
8:20 PM57 °FBroken clouds.6 mph88%29.71 "HgN/A
7:50 PM57 °FScattered showers. Broken clouds.7 mph88%29.71 "HgN/A
7:20 PM57 °FScattered showers. Broken clouds.7 mph88%29.71 "HgN/A
6:50 PM57 °FSprinkles. Broken clouds.8 mph88%29.71 "HgN/A
6:20 PM57 °FBroken clouds.9 mph88%29.71 "HgN/A
5:50 PM59 °FBroken clouds.8 mph82%29.71 "HgN/A
5:20 PM59 °FBroken clouds.8 mph82%29.71 "HgN/A
4:50 PM59 °FBroken clouds.8 mph82%29.71 "HgN/A
4:20 PM59 °FBroken clouds.8 mph82%29.71 "HgN/A
3:50 PM57 °FPartly sunny.8 mph88%29.71 "HgN/A
3:20 PM57 °FPartly sunny.9 mph82%29.74 "HgN/A
2:50 PM57 °FBroken clouds.9 mph88%29.74 "HgN/A
2:20 PM55 °FDrizzle. Broken clouds.9 mph94%29.74 "HgN/A
1:50 PM55 °FDrizzle. Broken clouds.13 mph88%29.74 "Hg6 mi
1:20 PM59 °FScattered showers. Broken clouds.14 mph72%29.74 "HgN/A
12:50 PM61 °FPartly sunny.15 mph68%29.74 "HgN/A
12:20 PM61 °FScattered showers. Broken clouds.13 mph63%29.74 "HgN/A
11:50 AM61 °FBroken clouds.10 mph68%29.74 "HgN/A
11:20 AM59 °FBroken clouds.13 mph72%29.74 "HgN/A
10:50 AM59 °FScattered showers. Broken clouds.12 mph72%29.74 "HgN/A
10:20 AM59 °FBroken clouds.12 mph77%29.74 "HgN/A
9:50 AM57 °FBroken clouds.10 mph82%29.74 "HgN/A
9:20 AM57 °FBroken clouds.12 mph82%29.74 "HgN/A
Weather by CustomWeather, © 2016

See weather overviewHow to use our weather pages